STAR ONE D1 (41904 NORAD) Tracking and Keplerian Element Data

This shows tracking and keplerian element data for the satellite.

Feedback or suggestion? Click here.




ElementValue
Catalog41904
NameSTAR ONE D1
Epoch Orbit853
Epoch Day106.84028501
Epoch Year2019
RAAN137.5727
Inclination0.0187
Eccentricity0.000224
Argument of Perigee258.8086
Mean Anonmoly26.7854
Mean Motion1.00270616
Decay Rate-2.32E-06
L11 41904U 16082B 19106.84028501 -.00000232 00000-0 00000-0 0 9998
L22 41904 0.0187 137.5727 0002240 258.8086 26.7854 1.00270616 8534

Live tracking and technical data element details for STAR ONE D1 (NORAD 41904). STAR ONE D1 can be tracked NOW for your location showing map with azimuth and elevation plus other details from your city location.

Track the satellite on the map from your city or location and see movement details for azimuth, elevation, latitude, longitude, range, height, and movement on the map or in text.







IsCatalogInMostPopularTable: catalog: 41904, numindb: 193
Update: records affected: 1



GetName: 41904 STAR ONE D1

Hit Count: updated at: Sat, 20 Apr 2019 01:08:25 GMT